7 * 24
多渠道服务支持
STARLINK-37492(NORAD编号68849)是美国SpaceX公司星链(Starlink)星座的低轨通信卫星。作为星链全球卫星互联网项目的组成部分,它运行在近地轨道,旨在为全球偏远地区、海洋和空中等传统网络无法覆盖的区域提供高速低延迟宽带互联网服务。 该卫星继承了星链批量生产、小型化设计的特点,通过星间链路和地面站协同工作,支持家庭及商业用户的网络接入需求。截至最新公开数据,该卫星处于在轨运行状态,参与星座组网,持续扩展星链全球覆盖范围,推动全球互联网普及,同时也引发了关于太空交通和天文观测的相关讨论。
美国
(US)
| 数据来源 | 国际轨道数据 |
| 星历时间: | 2026-09-13T08:56:39+0800 10小时前 查看轨道信息 |
| 半长轴: | 6843.745km |
| 偏心率: | 0.0002183 |
| 轨道倾角: | 97.286° |
| 近地点辐角 | 141.711° |
| 升交点赤经 | 269.263° |
| 平近点角 | 218.429° |
| 近地点: | 464.114km |
| 远地点: | 467.102km |
| 周期: | 93.908分钟 |
| 每日圈数: | 15.334235 |